Location: Savignano sul Rubicone
(44.0950°N, 12.4090°E)
Time: 08:14:36
(UTC+01:00)

N. Korean satellite - Pass Details

Date: 23 October 2019
Orbit: 456 x 506 km, 97.2° (Epoch: 21 November)

Event Time Altitude Azimuth Distance (km) Brightness Sun altitude
Rises 07:04:24 0° 13° (NNE) 2,569 10.3 -6.1°
Reaches altitude 10° 07:06:29 10° 14° (NNE) 1,691 9.4 -5.8°
Maximum altitude 07:10:07 80° 101° (E) 509 6.8 -5.1°
Drops below altitude 10° 07:13:47 10° 190° (S) 1,700 9.4 -4.5°
Sets 07:15:52 0° 191° (S) 2,584 10.3 -4.1°
